This is the latest recevied weather packets stored in our database for station/object N5XJB. If no packets are shown the sender has not sent any weather packets the latest 10 day(s).
| Time | Temp. | Humidity | Pressure | Rain* | Wind** | Luminosity | Snow |
|---|---|---|---|---|---|---|---|
| 1777649678 | 16.67° C | 99% | 1012.7 hPa | 0 mm | - | 33 W/m² | - |
| 1777649373 | 16.67° C | 99% | 1012.4 hPa | 0 mm | - | 59 W/m² | - |
| 1777649071 | 16.67° C | 99% | 1012.4 hPa | 0 mm | - | 67 W/m² | - |
| 1777648768 | 16.67° C | 99% | 1012.4 hPa | 0 mm | - | 65 W/m² | - |
| 1777648465 | 16.67° C | 99% | 1012.7 hPa | 0 mm | - | 70 W/m² | - |
| 1777648161 | 16.67° C | 99% | 1012.4 hPa | 0 mm | - | 91 W/m² | - |
| 1777647857 | 16.67° C | 99% | 1012.7 hPa | 0 mm | - | 96 W/m² | - |
| 1777647554 | 16.67° C | 99% | 1012.7 hPa | 4.57 mm | - | 143 W/m² | - |
| 1777647250 | 16.67° C | 99% | 1012.7 hPa | 4.57 mm | - | 131 W/m² | - |
| 1777646948 | 16.67° C | 99% | 1013.1 hPa | 4.57 mm | - | 95 W/m² | - |
| 1777646643 | 16.67° C | 99% | 1013.4 hPa | 3.56 mm | - | 50 W/m² | - |
| 1777646340 | 17.22° C | 99% | 1013.1 hPa | 2.29 mm | - | 43 W/m² | - |
| 1777646036 | 16.67° C | 99% | 1013.4 hPa | 1.78 mm | - | 21 W/m² | - |
| 1777645733 | 16.67° C | 99% | 1013.4 hPa | 1.52 mm | - | 15 W/m² | - |
| 1777645430 | 16.67° C | 99% | 1013.7 hPa | 1.02 mm | - | 13 W/m² | - |
| 1777645125 | 16.67° C | 99% | 1013.4 hPa | 1.02 mm | - | 17 W/m² | - |
| 1777644822 | 16.67° C | 99% | 1013.7 hPa | 1.02 mm | - | 58 W/m² | - |
| 1777644520 | 16.67° C | 99% | 1013.7 hPa | 0.76 mm | - | 28 W/m² | - |
| 1777644216 | 16.67° C | 99% | 1013.7 hPa | 0.25 mm | - | 28 W/m² | - |
| 1777643912 | 16.67° C | 99% | 1013.4 hPa | 4.32 mm | - | 17 W/m² | - |
| 1777643610 | 16.67° C | 99% | 1013.1 hPa | 3.81 mm | - | 20 W/m² | - |
| 1777643307 | 16.67° C | 99% | 1013.1 hPa | 3.81 mm | - | 14 W/m² | - |
| 1777643003 | 16.67° C | 99% | 1013.4 hPa | 3.56 mm | - | 26 W/m² | - |
| 1777642700 | 16.67° C | 99% | 1013.4 hPa | 3.56 mm | - | 19 W/m² | - |
| 1777642397 | 16.67° C | 99% | 1013.7 hPa | 3.05 mm | - | 10 W/m² | - |
* Rain latest hour (hover to see other rain measurements)
** Current wind speed in m/s (hover to see current wind gust speed)